| time (UTC) | temp F | wind direction | speed MPH | gust MPH | rain 1hr in | rain 24hr in | rain mn in | humidity % | barometer mb |
| 20260902183057 | 96 | 239 | 5.0 | 12.0 | 0.00 | 0.00 | 0.00 | 39 | 1016.0 |
| 20260902181611 | 97 | 257 | 4.0 | 11.0 | 0.00 | 0.00 | 0.00 | 37 | 1016.3 |
| 20260902180059 | 95 | 338 | 1.0 | 9.0 | 0.00 | 0.00 | 0.00 | 39 | 1016.6 |
| 20260902174559 | 94 | 281 | 0.0 | 9.0 | 0.00 | 0.00 | 0.00 | 42 | 1017.0 |
| 20260902173046 | 94 | 205 | 4.0 | 11.0 | 0.00 | 0.00 | 0.00 | 41 | 1017.2 |
| 20260902171610 | 94 | 234 | 1.0 | 12.0 | 0.00 | 0.00 | 0.00 | 44 | 1017.4 |
| 20260902170056 | 93 | 198 | 7.0 | 14.0 | 0.00 | 0.00 | 0.00 | 46 | 1017.4 |
| 20260902164557 | 92 | 182 | 6.0 | 12.0 | 0.00 | 0.00 | 0.00 | 48 | 1017.5 |
| 20260902163049 | 91 | 231 | 7.0 | 12.0 | 0.00 | 0.00 | 0.00 | 50 | 1017.6 |
| 20260902161604 | 91 | 225 | 9.0 | 15.0 | 0.00 | 0.00 | 0.00 | 52 | 1017.7 |
| 20260902160051 | 89 | 239 | 10.0 | 14.0 | 0.00 | 0.00 | 0.00 | 54 | 1017.8 |
| 20260902154607 | 88 | 238 | 10.0 | 17.0 | 0.00 | 0.00 | 0.00 | 57 | 1017.7 |
| 20260902153058 | 87 | 224 | 10.0 | 16.0 | 0.00 | 0.00 | 0.00 | 58 | 1017.6 |
| 20260902151554 | 86 | 224 | 7.0 | 14.0 | 0.00 | 0.00 | 0.00 | 61 | 1017.6 |
| 20260902150054 | 85 | 226 | 7.0 | 12.0 | 0.00 | 0.00 | 0.00 | 63 | 1017.5 |
| 20260902144555 | 83 | 218 | 8.0 | 13.0 | 0.00 | 0.00 | 0.00 | 64 | 1017.7 |
| 20260902143050 | 83 | 231 | 7.0 | 13.0 | 0.00 | 0.00 | 0.00 | 66 | 1017.7 |
| 20260902141547 | 82 | 203 | 10.0 | 13.0 | 0.00 | 0.00 | 0.00 | 67 | 1017.7 |
| 20260902140058 | 80 | 221 | 7.0 | 10.0 | 0.00 | 0.00 | 0.00 | 69 | 1017.6 |
| 20260902134609 | 78 | 250 | 2.0 | 5.0 | 0.00 | 0.00 | 0.00 | 69 | 1017.6 |
| 20260902133059 | 78 | 259 | 3.0 | 6.0 | 0.00 | 0.00 | 0.00 | 69 | 1017.6 |
| 20260902131549 | 77 | 215 | 5.0 | 6.0 | 0.00 | 0.00 | 0.00 | 71 | 1017.5 |
| 20260902130046 | 75 | 255 | 1.0 | 3.0 | 0.00 | 0.00 | 0.00 | 71 | 1017.3 |
| 20260902124601 | 75 | 0 | 0.0 | 1.0 | 0.00 | 0.00 | 0.00 | 69 | 1017.2 |
| 20260902123050 | 75 | 229 | 0.0 | 1.0 | 0.00 | 0.00 | 0.00 | 69 | 1017.2 |
| 20260902121551 | 75 | 0 | 0.0 | 2.0 | 0.00 | 0.00 | 0.00 | 68 | 1017.1 |
| 20260902120058 | 76 | 155 | 0.0 | 5.0 | 0.00 | 0.00 | 0.00 | 68 | 1017.1 |
| 20260902114552 | 76 | 153 | 3.0 | 7.0 | 0.00 | 0.00 | 0.00 | 67 | 1016.9 |
| 20260902113052 | 76 | 145 | 7.0 | 9.0 | 0.00 | 0.00 | 0.00 | 66 | 1016.9 |
| 20260902111549 | 77 | 155 | 7.0 | 10.0 | 0.00 | 0.00 | 0.00 | 66 | 1016.7 |
| 20260902110046 | 77 | 160 | 7.0 | 10.0 | 0.00 | 0.00 | 0.00 | 65 | 1016.7 |
| 20260902104553 | 76 | 155 | 4.0 | 9.0 | 0.00 | 0.00 | 0.00 | 65 | 1016.7 |
| 20260902103057 | 76 | 61 | 2.0 | 7.0 | 0.00 | 0.00 | 0.00 | 63 | 1016.8 |
| 20260902101549 | 78 | 119 | 3.0 | 8.0 | 0.00 | 0.00 | 0.00 | 62 | 1016.6 |
| 20260902100054 | 77 | 180 | 4.0 | 8.0 | 0.00 | 0.00 | 0.00 | 62 | 1016.4 |
| 20260902094556 | 76 | 0 | 2.0 | 5.0 | 0.00 | 0.00 | 0.00 | 63 | 1016.5 |
| 20260902093133 | 78 | 9 | 1.0 | 8.0 | 0.00 | 0.00 | 0.00 | 60 | 1016.4 |
| 20260902091557 | 79 | 165 | 5.0 | 8.0 | 0.00 | 0.00 | 0.00 | 59 | 1016.3 |
| 20260902090058 | 79 | 163 | 4.0 | 7.0 | 0.00 | 0.00 | 0.00 | 59 | 1016.4 |
| 20260902084555 | 78 | 163 | 1.0 | 2.0 | 0.00 | 0.00 | 0.00 | 59 | 1016.3 |
| 20260902083052 | 79 | 156 | 3.0 | 7.0 | 0.00 | 0.00 | 0.00 | 58 | 1016.3 |
| 20260902081612 | 79 | 148 | 3.0 | 8.0 | 0.00 | 0.00 | 0.00 | 58 | 1016.2 |
| 20260902080058 | 79 | 147 | 5.0 | 9.0 | 0.00 | 0.00 | 0.00 | 58 | 1016.2 |
| 20260902074557 | 79 | 154 | 6.0 | 8.0 | 0.00 | 0.00 | 0.00 | 59 | 1016.2 |
| 20260902073051 | 80 | 150 | 6.0 | 9.0 | 0.00 | 0.00 | 0.00 | 58 | 1016.2 |
| 20260902071601 | 80 | 145 | 9.0 | 13.0 | 0.00 | 0.00 | 0.00 | 57 | 1016.2 |
| 20260902070047 | 81 | 155 | 6.0 | 10.0 | 0.00 | 0.00 | 0.00 | 58 | 1016.2 |
| 20260902064546 | 82 | 132 | 7.0 | 10.0 | 0.00 | 0.00 | 0.00 | 56 | 1016.3 |
| 20260902063055 | 82 | 132 | 7.0 | 11.0 | 0.00 | 0.00 | 0.00 | 56 | 1016.3 |
| 20260902060059 | 83 | 140 | 7.0 | 12.0 | 0.00 | 0.00 | 0.00 | 55 | 1016.4 |
| 20260902054547 | 84 | 148 | 10.0 | 16.0 | 0.00 | 0.00 | 0.00 | 54 | 1016.4 |
| 20260902053055 | 84 | 144 | 7.0 | 10.0 | 0.00 | 0.00 | 0.00 | 54 | 1016.5 |
| 20260902051550 | 84 | 141 | 8.0 | 11.0 | 0.00 | 0.00 | 0.00 | 53 | 1016.5 |
| 20260902050104 | 85 | 138 | 8.0 | 15.0 | 0.00 | 0.00 | 0.00 | 52 | 1016.6 |
| 20260902044608 | 85 | 134 | 7.0 | 12.0 | 0.00 | 0.00 | 0.00 | 52 | 1016.6 |
| 20260902043044 | 85 | 127 | 7.0 | 11.0 | 0.00 | 0.00 | 0.00 | 51 | 1016.6 |
| 20260902041552 | 85 | 133 | 6.0 | 10.0 | 0.00 | 0.00 | 0.00 | 48 | 1016.5 |
| 20260902040053 | 86 | 119 | 5.0 | 12.0 | 0.00 | 0.00 | 0.00 | 47 | 1016.4 |
| 20260902034601 | 86 | 142 | 8.0 | 12.0 | 0.00 | 0.00 | 0.00 | 46 | 1016.3 |
| 20260902033107 | 86 | 123 | 5.0 | 10.0 | 0.00 | 0.00 | 0.00 | 44 | 1016.2 |
| 20260902031553 | 86 | 118 | 4.0 | 10.0 | 0.00 | 0.00 | 0.00 | 44 | 1016.1 |
| 20260902030050 | 87 | 119 | 4.0 | 9.0 | 0.00 | 0.00 | 0.00 | 43 | 1015.9 |
| 20260902024554 | 88 | 137 | 4.0 | 9.0 | 0.00 | 0.00 | 0.00 | 42 | 1015.5 |
| 20260902023046 | 89 | 137 | 4.0 | 10.0 | 0.00 | 0.00 | 0.00 | 41 | 1015.3 |
| 20260902021557 | 90 | 105 | 5.0 | 10.0 | 0.00 | 0.00 | 0.00 | 40 | 1015.1 |
| 20260902020052 | 91 | 131 | 6.0 | 12.0 | 0.00 | 0.00 | 0.00 | 39 | 1014.8 |
| 20260902014549 | 91 | 123 | 6.0 | 11.0 | 0.00 | 0.00 | 0.00 | 38 | 1014.5 |
| 20260902013045 | 92 | 117 | 7.0 | 12.0 | 0.00 | 0.00 | 0.00 | 38 | 1014.5 |
| 20260902011555 | 93 | 100 | 8.0 | 14.0 | 0.00 | 0.00 | 0.00 | 37 | 1014.5 |
| 20260902010052 | 94 | 88 | 8.0 | 18.0 | 0.00 | 0.00 | 0.00 | 36 | 1014.4 |
| 20260902004558 | 95 | 84 | 5.0 | 11.0 | 0.00 | 0.00 | 0.00 | 36 | 1014.4 |
| 20260902003100 | 95 | 110 | 7.0 | 11.0 | 0.00 | 0.00 | 0.00 | 34 | 1014.5 |
| 20260902001554 | 96 | 109 | 5.0 | 11.0 | 0.00 | 0.00 | 0.00 | 35 | 1014.3 |
| 20260901234550 | 96 | 101 | 6.0 | 11.0 | 0.00 | 0.00 | 0.00 | 34 | 1014.3 |
| 20260901233045 | 97 | 123 | 7.0 | 11.0 | 0.00 | 0.00 | 0.00 | 34 | 1014.4 |
| 20260901231557 | 96 | 127 | 5.0 | 11.0 | 0.00 | 0.00 | 0.00 | 34 | 1014.3 |
| 20260901230055 | 96 | 126 | 8.0 | 13.0 | 0.00 | 0.00 | 0.00 | 35 | 1014.3 |
| 20260901224554 | 97 | 101 | 10.0 | 15.0 | 0.00 | 0.00 | 0.00 | 35 | 1014.3 |
| 20260901223050 | 96 | 130 | 8.0 | 15.0 | 0.00 | 0.00 | 0.00 | 36 | 1014.3 |
| 20260901221547 | 97 | 161 | 4.0 | 12.0 | 0.00 | 0.00 | 0.00 | 35 | 1014.5 |
| 20260901220053 | 97 | 101 | 6.0 | 12.0 | 0.00 | 0.00 | 0.00 | 34 | 1014.5 |
| 20260901214557 | 96 | 173 | 3.0 | 10.0 | 0.00 | 0.00 | 0.00 | 36 | 1014.6 |
| 20260901213111 | 96 | 93 | 5.0 | 11.0 | 0.00 | 0.00 | 0.00 | 34 | 1014.8 |
| 20260901211557 | 96 | 111 | 3.0 | 13.0 | 0.00 | 0.00 | 0.00 | 34 | 1015.1 |
| 20260901210058 | 97 | 150 | 7.0 | 11.0 | 0.00 | 0.00 | 0.00 | 35 | 1015.3 |
| 20260901204551 | 96 | 137 | 6.0 | 10.0 | 0.00 | 0.00 | 0.00 | 36 | 1015.3 |
| 20260901203113 | 95 | 172 | 5.0 | 14.0 | 0.00 | 0.00 | 0.00 | 37 | 1015.6 |
| 20260901201549 | 95 | 76 | 5.0 | 12.0 | 0.00 | 0.00 | 0.00 | 37 | 1016.0 |
| 20260901200054 | 94 | 103 | 2.0 | 6.0 | 0.00 | 0.00 | 0.00 | 39 | 1016.1 |
| 20260901194558 | 94 | 57 | 5.0 | 20.0 | 0.00 | 0.00 | 0.00 | 38 | 1016.2 |
| 20260901193125 | 96 | 99 | 3.0 | 10.0 | 0.00 | 0.00 | 0.00 | 37 | 1016.4 |
| 20260901191553 | 96 | 125 | 4.0 | 9.0 | 0.00 | 0.00 | 0.00 | 37 | 1016.7 |
| 20260901190106 | 94 | 104 | 1.0 | 11.0 | 0.00 | 0.00 | 0.00 | 38 | 1016.9 |
| 20260901184553 | 94 | 67 | 8.0 | 12.0 | 0.00 | 0.00 | 0.00 | 37 | 1017.1 |